Regional Weather Roundup
Issued by NWS Midland/Odessa, TX

Skip options and go directly to product.
Home | Oldest Version | Previous Version | Current Version | All | Text Only | Save Text | Print | Product List | Glossary Off

Skip product version selection by date and time.   

718
ASUS44 KMAF 221601
RWRMAF
MIDLAND AREA WEATHER ROUNDUP
NATIONAL WEATHER SERVICE MIDLAND TX
1100 AM CDT FRI MAY 22 2015

...IN SOUTHWEST TEXAS AND SOUTHEAST NEW MEXICO...

CITY           SKY/WX    TMP DP  RH WIND       PRES   REMARKS
ALPINE         MOSUNNY   67  60  77 CALM      30.19S
ANDREWS        CLOUDY    59  59 100 E5        30.12R
ARTESIA        CLOUDY    57  55  94 CALM      30.13F
BIG SPRING     CLOUDY    61  59  93 E7        30.12S
CARLSBAD       CLOUDY    60  54  80 CALM      30.11S
DRYDEN           N/A     72  66  81 S7        30.06S
FORT STOCKTON  CLOUDY    63  60  90 VRB5      30.10S
GUAD PASS      CLOUDY    56  53  90 S5        30.17S
HOBBS          CLOUDY    55  55 100 CALM      30.14S
MARFA          PTSUNNY   66  59  77 S7        30.17S
MIDLAND AIRPK  CLOUDY    62  62 100 CALM      30.11S FOG
MIDLAND INTL   CLOUDY    62  60  93 E3        30.10S FOG
ODESSA         CLOUDY    61  59  93 E7        30.11S FOG
PECOS          CLOUDY    59  57  95 CALM      30.10F FOG
PRESIDIO       FAIR      76  59  56 E8        30.05S
SEMINOLE       DRIZZLE   57  57  99 E7        30.13S
SNYDER         RAIN      58  58  98 CALM      30.13R
WINK           CLOUDY    63  58  83 CALM      30.09S
$$
...OTHER STATIONS IN TEXAS...

CITY           SKY/WX    TMP DP  RH WIND       PRES   REMARKS
ABILENE        CLOUDY    62  60  93 S13       30.12S FOG
AMARILLO       CLOUDY    53  51  93 SE12      30.14F
AUSTIN         CLOUDY    69  69 100 E6        30.10F FOG
BROWNSVILLE    PTSUNNY   87  73  62 SE15      30.00S
CORPUS CHRISTI PTSUNNY   84  75  74 SE15      30.03S
DALLAS FTW     CLOUDY    60  53  77 SE14      30.15S
DEL RIO        CLOUDY    72  68  87 SE10      30.03S
EL PASO        MOSUNNY   65  54  67 CALM      30.07F
HOUSTON INT    CLOUDY    68  62  81 NE10      30.15R
LUBBOCK        CLOUDY    56  54  93 SE8       30.14S
SAN ANGELO     CLOUDY    66  62  87 E6        30.10S
SAN ANTONIO    FOG       71  68  90 SE12      30.09F VSB 3/4
WACO           CLOUDY    65  61  87 E8        30.14S
WICHITA FALLS  NOT AVBL
$$
...OTHER LOCATIONS IN NEW MEXICO...

CITY           SKY/WX    TMP DP  RH WIND       PRES   REMARKS
ALAMAGORDO     SUNNY     61  50  67 W5        30.11S
ALBUQUERQUE    PTSUNNY   57  45  64 SW5       30.12R
CANNON AFB     CLOUDY    53  51  91 S6        30.14S
CLOVIS         CLOUDY    52  48  87 S5        30.15S
HOLLOMAN AFB   SUNNY     61  52  72 SW1       30.09F
ROSWELL        CLOUDY    57  52  83 SE7       30.12R
RUIDOSO        MOSUNNY   50  50 100 SE6       30.20S
SANTA FE       CLOUDY    52  44  74 SE9       30.14F
TRUTH OR CONSE SUNNY     59  49  69 VRB3      30.09S
TUCUMCARI      NOT AVBL
$$

USA.gov is the U.S. government's official web portal to all federal, state and local government web resources and services.